Location: Melbourne
(37.8666°S, 145.1333°E)
Time: 18:50:18
(UTC+10:00)

Amateur Radio Satellites - All Passes

Search period start: 24 June 2017 18:20
Search period end: 25 June 2017 18:20
Location: Melbourne, 37.8666°S, 145.1333°E

Satellite Date Start Highest point End Downlink Frequencies (MHz)
Time Altitude Azimuth
XW-2F 24 Jun 18:20:39 18:24:31 62° 79° (E) 18:28:21 145.980 - 146.000
XW-2D 24 Jun 18:23:16 18:27:12 74° 78° (ENE) 18:31:04 145.860 - 145.880
LilacSat-2 24 Jun 18:29:13 18:33:10 89° 255° (WSW) 18:37:05 437.200
XW-2B 24 Jun 18:32:13 18:36:09 88° 265° (W) 18:40:01 145.730 - 145.750
BEESAT 2 24 Jun 18:38:33 18:42:22 56° 123° (ESE) 18:46:11 435.950
CUTE 1.7 + AOD 2 24 Jun 18:42:04 18:44:52 16° 87° (E) 18:47:37 437.475
DOVE 4 24 Jun 18:43:19 18:47:27 33° 250° (WSW) 18:51:21 437.250
XW-2C 24 Jun 18:47:41 18:51:31 54° 255° (WSW) 18:55:17 145.795 - 145.815
KAITUO 1B 24 Jun 19:06:36 19:10:14 40° 253° (WSW) 19:13:50 145.475/437.950
CUTE-I 24 Jun 19:09:13 19:14:29 57° 252° (WSW) 19:19:42 437.470
STRAND 1 24 Jun 19:10:15 19:15:23 72° 283° (WNW) 19:20:34 437.568
O/OREOS (USA 219) 24 Jun 19:19:11 19:23:48 56° 113° (ESE) 19:28:20 437.305
BEESAT 3 24 Jun 19:22:44 19:24:48 14° 290° (WNW) 19:26:52 437.485
AAUSAT CUBESAT 2 24 Jun 19:25:09 19:27:26 14° 88° (E) 19:29:40 437.432
XW-2A 24 Jun 19:29:44 19:33:00 39° 81° (E) 19:36:14 145.665 - 145.685
HO-68 24 Jun 19:29:53 19:37:02 58° 78° (ENE) 19:44:05 435.675
ISS 24 Jun 19:42:40 19:45:02 18° 50° (NE) 19:47:26 437.550
Tancredo 1 24 Jun 19:43:54 19:46:47 39° 45° (NE) 19:49:41 437.200
NUDT-PHONESAT 24 Jun 19:46:15 19:48:21 14° 247° (WSW) 19:50:25 437.300
SEEDS 24 Jun 20:02:29 20:06:50 90° 114° (ESE) 20:11:08 437.485
M-CUBED/EXP-1 PRIME 24 Jun 20:08:17 20:12:24 33° 115° (ESE) 20:16:38 437.505
CUBEBUG 2 24 Jun 20:09:28 20:13:45 81° 80° (E) 20:18:04 437.445
AO-73 24 Jun 20:12:13 20:15:46 24° 85° (E) 20:19:19 145.935
CUTE 1.7 + AOD 2 24 Jun 20:16:45 20:20:49 39° 252° (WSW) 20:24:50 437.475
PRISM 24 Jun 20:17:44 20:19:34 13° 116° (ESE) 20:21:23 437.425
BEESAT 2 24 Jun 20:19:16 20:19:35 10° 288° (WNW) 20:19:56 435.950
YUBILEINY 24 Jun 20:21:40 20:29:56 43° 105° (ESE) 20:38:08 435.215
RS-15 24 Jun 20:22:00 20:30:27 25° 283° (WNW) 20:39:12 29.354- 29.394
UNISAT 6 24 Jun 20:34:17 20:37:20 19° 113° (ESE) 20:40:22 437.425
Oscar 11 24 Jun 20:41:12 20:45:23 39° 82° (E) 20:49:29 .
ZACube-1 24 Jun 20:45:36 20:49:55 66° 78° (ENE) 20:54:17 437.345
UWE-3 24 Jun 20:46:50 20:51:06 64° 256° (WSW) 20:55:24 435.000/436.395/437.385
FO-29 24 Jun 20:50:49 20:57:38 50° 109° (ESE) 21:03:44 435.910
AAUSAT CUBESAT 2 24 Jun 20:59:01 21:03:04 43° 253° (WSW) 21:07:03 437.432
O/OREOS (USA 219) 24 Jun 21:00:34 21:02:38 13° 278° (W) 21:04:43 437.305
XW-2A 24 Jun 21:04:43 21:05:20 10° 247° (WSW) 21:05:57 145.665 - 145.685
DELFI C3 24 Jun 21:07:01 21:09:53 18° 86° (E) 21:12:42 145.870
ISS 24 Jun 21:18:08 21:21:18 41° 215° (SW) 21:24:30 437.550
HO-68 24 Jun 21:18:27 21:24:14 27° 241° (WSW) 21:30:00 435.675
Tancredo 1 24 Jun 21:20:05 21:22:29 21° 208° (SSW) 21:24:54 437.200
TIGRISAT 24 Jun 21:27:40 21:32:03 68° 105° (ESE) 21:36:23 435.000
M-CUBED/EXP-1 PRIME 24 Jun 21:43:03 21:46:46 24° 279° (W) 21:50:37 437.505
AO-73 24 Jun 21:48:16 21:51:55 27° 250° (WSW) 21:55:36 145.935
PRISM 24 Jun 21:50:13 21:54:19 53° 280° (W) 21:58:29 437.425
UNISAT 6 24 Jun 22:09:41 22:13:46 36° 278° (W) 22:17:49 437.425
Oscar 11 24 Jun 22:18:15 22:21:09 17° 247° (WSW) 22:24:03 .
YUBILEINY 24 Jun 22:18:41 22:26:33 39° 266° (W) 22:34:23 435.215
EO-79 24 Jun 22:19:04 22:21:35 16° 114° (ESE) 22:24:06 145.935-145.965
ZACube-1 24 Jun 22:24:40 22:25:38 11° 244° (WSW) 22:26:36 437.345
EO-88 24 Jun 22:29:52 22:33:34 57° 255° (WSW) 22:37:12 145.990 - 145.960
DUCHIFAT 1 24 Jun 22:34:34 22:37:30 18° 113° (ESE) 22:40:26 145.980
FO-29 24 Jun 22:36:55 22:42:44 27° 276° (W) 22:48:08 435.910
DELFI C3 24 Jun 22:41:07 22:44:40 30° 251° (WSW) 22:48:10 145.870
NANOSAT C BR1 24 Jun 22:41:35 22:45:02 25° 111° (ESE) 22:48:30 145.865
ESTCUBE 1 24 Jun 22:45:56 22:48:43 16° 88° (E) 22:51:28 437.505/2401.250
ISS 24 Jun 22:57:30 22:58:31 11° 196° (SSW) 22:59:32 437.550
LO-87 24 Jun 22:58:13 23:01:32 33° 82° (E) 23:04:47 145.935 - 145.965
AIST 2D 24 Jun 23:08:59 23:12:25 56° 281° (W) 23:15:56 435.315
POLYITAN 1 24 Jun 23:16:50 23:21:03 71° 105° (ESE) 23:25:19 437.675
PCSat 24 Jun 23:23:29 23:28:24 36° 70° (ENE) 23:33:21 145.827
QB50P2 24 Jun 23:27:32 23:31:48 78° 281° (W) 23:36:05 145.880/145.840
SPROUT 24 Jun 23:29:55 23:30:19 10° 90° (E) 23:30:42 437.525
BUGSAT 1 24 Jun 23:50:00 23:53:51 37° 108° (ESE) 23:57:42 437.445
EO-79 24 Jun 23:52:55 23:56:57 42° 279° (W) 00:01:02 145.935-145.965
Oscar 19 25 Jun 00:04:13 00:08:20 24° 114° (ESE) 00:12:30 437.125/150
DUCHIFAT 1 25 Jun 00:09:02 00:12:53 34° 278° (W) 00:16:47 145.980
NANOSAT C BR1 25 Jun 00:17:06 00:20:37 25° 276° (W) 00:24:09 145.865
ESTCUBE 1 25 Jun 00:21:18 00:25:43 45° 253° (WSW) 00:30:04 437.505/2401.250
VELOX 1 25 Jun 00:29:36 00:33:58 49° 80° (E) 00:38:15 145.980
50 SAT 25 Jun 00:31:59 00:34:40 20° 84° (E) 00:37:18 437.505
LO-87 25 Jun 00:32:50 00:34:37 13° 247° (WSW) 00:36:23 145.935 - 145.965
Gurwin Techsat 1B 25 Jun 00:44:34 00:49:26 37° 111° (ESE) 00:54:19 435.225
AO-7 25 Jun 00:44:52 00:48:18 13° 132° (SE) 00:51:45 .
DX 1 25 Jun 00:54:30 00:58:21 28° 83° (E) 01:02:08 434.975-435.025
SPROUT 25 Jun 01:02:19 01:06:34 60° 254° (WSW) 01:10:46 437.525
PCSat 25 Jun 01:07:04 01:11:48 30° 233° (SW) 01:16:34 145.827
SO-50 25 Jun 01:12:10 01:15:26 19° 71° (ENE) 01:18:45 436.795
UKube-1 25 Jun 01:14:40 01:18:37 32° 82° (E) 01:22:29 .
BUGSAT 1 25 Jun 01:26:48 01:29:20 16° 273° (W) 01:31:51 437.445
Oscar 19 25 Jun 01:42:36 01:47:24 38° 278° (W) 01:52:17 437.125/150
JUGNU 25 Jun 02:02:33 02:04:32 12° 6° (N) 02:06:32 437.505
50 SAT 25 Jun 02:04:45 02:07:19 19° 249° (WSW) 02:09:51 437.505
VELOX 1 25 Jun 02:07:25 02:09:57 15° 244° (WSW) 02:12:28 145.980
BEESAT 25 Jun 02:09:11 02:10:43 11° 89° (E) 02:12:14 436.000
Tancredo 1 25 Jun 02:09:48 02:12:25 25° 149° (SSE) 02:15:03 437.200
ISS 25 Jun 02:11:33 02:13:56 18° 155° (SSE) 02:16:18 437.550
ITAMSAT 1 25 Jun 02:16:57 02:21:39 35° 111° (ESE) 02:26:24 435.822/435.867
Gurwin Techsat 1B 25 Jun 02:24:59 02:29:24 26° 275° (W) 02:33:51 435.225
DX 1 25 Jun 02:30:51 02:34:22 23° 248° (WSW) 02:37:50 434.975-435.025
AO-7 25 Jun 02:31:12 02:39:24 63° 112° (ESE) 02:47:39 .
SO-50 25 Jun 02:51:00 02:55:32 46° 234° (SW) 03:00:10 436.795
UKube-1 25 Jun 02:51:07 02:54:24 21° 247° (WSW) 02:57:39 .
MOZHAYETS 4 25 Jun 03:27:14 03:31:50 53° 80° (E) 03:36:23
ITUPSAT 1 25 Jun 03:33:05 03:37:58 89° 264° (W) 03:42:47 437.325
BEESAT 25 Jun 03:44:06 03:48:55 67° 254° (WSW) 03:53:41 436.000
Tancredo 1 25 Jun 03:45:19 03:48:00 28° 313° (NW) 03:50:39 437.200
ISS 25 Jun 03:47:25 03:50:43 67° 318° (NW) 03:53:58 437.550
JUGNU 25 Jun 03:50:26 03:52:40 12° 356° (N) 03:54:53 437.505
ITAMSAT 1 25 Jun 03:56:46 04:01:07 26° 276° (W) 04:05:30 435.822/435.867
CUBESAT XI-V 25 Jun 04:04:59 04:08:53 24° 85° (E) 04:12:43 437.345
DOVE 4 25 Jun 04:09:03 04:13:01 22° 113° (ESE) 04:16:58 437.250
AO-7 25 Jun 04:25:50 04:32:35 27° 276° (W) 04:39:24 .
NUDT-PHONESAT 25 Jun 04:50:16 04:52:01 13° 113° (ESE) 04:53:47 437.300
CUTE-I 25 Jun 04:50:29 04:54:44 24° 114° (ESE) 04:58:59 437.470
XW-2F 25 Jun 05:00:11 05:03:09 22° 110° (ESE) 05:06:08 145.980 - 146.000
XW-2D 25 Jun 05:02:58 05:06:09 26° 109° (ESE) 05:09:22 145.860 - 145.880
MOZHAYETS 4 25 Jun 05:05:51 05:08:30 15° 245° (WSW) 05:11:07
LilacSat-2 25 Jun 05:09:18 05:12:43 32° 108° (ESE) 05:16:10 437.200
KKS-1 25 Jun 05:10:51 05:15:22 83° 76° (ENE) 05:19:49 437.445
XW-2B 25 Jun 05:11:41 05:15:04 32° 108° (ESE) 05:18:30 145.730 - 145.750
XW-2C 25 Jun 05:26:45 05:30:25 51° 105° (ESE) 05:34:09 145.795 - 145.815
SRMSAT 25 Jun 05:32:21 05:35:01 13° 2° (N) 05:37:41 437.500
CUBESAT XI-V 25 Jun 05:42:00 05:46:13 31° 250° (WSW) 05:50:23 437.345
KAITUO 1B 25 Jun 05:44:10 05:47:51 66° 104° (ESE) 05:51:38 145.475/437.950
STARS 25 Jun 05:44:20 05:48:47 81° 76° (ENE) 05:53:10 437.465
DOVE 4 25 Jun 05:45:13 05:50:20 46° 278° (W) 05:55:25 437.250
HO-68 25 Jun 05:56:48 06:03:10 36° 116° (ESE) 06:09:34 435.675
XW-2A 25 Jun 06:01:41 06:02:20 10° 113° (ESE) 06:03:01 145.665 - 145.685
NUDT-PHONESAT 25 Jun 06:22:06 06:25:32 37° 278° (W) 06:29:03 437.300
CUTE-I 25 Jun 06:29:25 06:34:28 42° 279° (W) 06:39:36 437.470
XW-2F 25 Jun 06:34:14 06:37:10 21° 275° (W) 06:40:09 145.980 - 146.000
XW-2D 25 Jun 06:37:37 06:40:18 18° 274° (W) 06:43:00 145.860 - 145.880
LilacSat-2 25 Jun 06:44:50 06:47:04 15° 273° (W) 06:49:20 437.200
XW-2B 25 Jun 06:47:06 06:49:19 15° 273° (W) 06:51:34 145.730 - 145.750
SEEDS 25 Jun 06:51:56 06:55:59 46° 106° (ESE) 07:00:07 437.485
CUBEBUG 2 25 Jun 07:05:29 07:09:44 51° 105° (ESE) 07:13:54 437.445
CUTE 1.7 + AOD 2 25 Jun 07:06:47 07:11:01 71° 282° (WNW) 07:15:20 437.475
AO-73 25 Jun 07:07:04 07:09:27 15° 114° (ESE) 07:11:49 145.935
SRMSAT 25 Jun 07:21:40 07:23:19 11° 351° (N) 07:24:58 437.500
STRAND 1 25 Jun 07:22:40 07:27:37 45° 81° (E) 07:32:31 437.568
XW-2A 25 Jun 07:31:31 07:34:40 37° 279° (W) 07:37:53 145.665 - 145.685
Oscar 11 25 Jun 07:34:25 07:37:56 25° 111° (ESE) 07:41:30 .
ZACube-1 25 Jun 07:39:36 07:43:31 39° 107° (ESE) 07:47:26 437.345
UWE-3 25 Jun 07:41:37 07:45:54 79° 102° (ESE) 07:50:09 435.000/436.395/437.385
HO-68 25 Jun 07:44:02 07:50:42 42° 279° (W) 07:57:28 435.675
AAUSAT CUBESAT 2 25 Jun 07:46:28 07:50:40 87° 276° (W) 07:54:56 437.432
PCSat 25 Jun 08:13:14 08:17:28 22° 130° (SE) 08:21:41 145.827
AO-85 25 Jun 08:25:05 08:30:11 85° 61° (ENE) 08:35:35 145.980
RS-15 25 Jun 08:28:57 08:39:47 63° 67° (ENE) 08:50:26 29.354- 29.394
BEESAT 2 25 Jun 08:29:38 08:31:49 14° 70° (ENE) 08:34:00 435.950
SEEDS 25 Jun 08:29:54 08:31:55 13° 271° (W) 08:33:56 437.485
AO-73 25 Jun 08:41:20 08:45:18 41° 279° (W) 08:49:18 145.935
CUBEBUG 2 25 Jun 08:44:53 08:46:36 12° 272° (W) 08:48:19 437.445
STRAND 1 25 Jun 09:02:41 09:06:26 21° 245° (WSW) 09:10:10 437.568
EO-88 25 Jun 09:05:31 09:08:59 42° 106° (ESE) 09:12:30 145.990 - 145.960
BEESAT 3 25 Jun 09:08:57 09:12:44 58° 237° (WSW) 09:16:31 437.485
Oscar 11 25 Jun 09:10:18 09:13:57 26° 275° (W) 09:17:39 .
ZACube-1 25 Jun 09:17:28 09:19:56 15° 273° (W) 09:22:25 437.345
YUBILEINY 25 Jun 09:20:00 09:28:22 53° 90° (E) 09:36:46 435.215
TIGRISAT 25 Jun 09:21:59 09:24:38 16° 87° (E) 09:27:17 435.000
NO-84 25 Jun 09:23:05 09:26:25 54° 48° (NE) 09:29:32 435.350 FM
M-CUBED/EXP-1 PRIME 25 Jun 09:23:24 09:27:04 28° 80° (E) 09:30:27 437.505
DELFI C3 25 Jun 09:23:38 09:27:37 70° 282° (WNW) 09:31:43 145.870
O/OREOS (USA 219) 25 Jun 09:29:21 09:33:54 88° 243° (WSW) 09:38:32 437.305
PRISM 25 Jun 09:33:49 09:37:10 23° 85° (E) 09:40:28 437.425
LO-87 25 Jun 09:34:19 09:35:38 12° 114° (ESE) 09:36:57 145.935 - 145.965
ESTCUBE 1 25 Jun 09:44:47 09:46:40 12° 117° (ESE) 09:48:34 437.505/2401.250
SO-50 25 Jun 09:44:57 09:47:29 14° 138° (SE) 09:50:00 436.795
FO-29 25 Jun 09:47:13 09:52:13 43° 81° (E) 09:57:14 435.910
PCSat 25 Jun 09:55:53 10:01:10 52° 293° (WNW) 10:06:24 145.827
UNISAT 6 25 Jun 10:02:27 10:06:43 50° 80° (E) 10:11:00 437.425
BEESAT 2 25 Jun 10:05:29 10:09:11 40° 236° (SW) 10:12:55 435.950
AO-85 25 Jun 10:08:07 10:11:24 16° 222° (SW) 10:14:45 145.980
AIST 2D 25 Jun 10:37:27 10:38:53 12° 88° (E) 10:40:17 435.315
EO-88 25 Jun 10:42:02 10:42:52 11° 271° (W) 10:43:40 145.990 - 145.960
RS-15 25 Jun 10:42:40 10:52:39 39° 224° (SW) 11:02:41 29.354- 29.394
TIGRISAT 25 Jun 10:57:21 11:01:28 41° 253° (WSW) 11:05:36 435.000
M-CUBED/EXP-1 PRIME 25 Jun 10:57:57 11:01:18 22° 242° (WSW) 11:04:27 437.505
NO-84 25 Jun 11:02:07 11:04:04 15° 213° (SSW) 11:05:57 435.350 FM
POLYITAN 1 25 Jun 11:05:06 11:07:09 13° 88° (E) 11:09:10 437.675
LO-87 25 Jun 11:05:10 11:08:39 41° 279° (W) 11:12:10 145.935 - 145.965
PRISM 25 Jun 11:08:52 11:12:22 26° 249° (WSW) 11:15:48 437.425
QB50P2 25 Jun 11:14:58 11:18:04 19° 86° (E) 11:21:07 145.880/145.840
YUBILEINY 25 Jun 11:17:52 11:25:26 32° 252° (WSW) 11:33:05 435.215
ESTCUBE 1 25 Jun 11:18:23 11:22:53 63° 281° (W) 11:27:27 437.505/2401.250
SO-50 25 Jun 11:23:47 11:28:36 85° 298° (WNW) 11:33:19 436.795
VELOX 1 25 Jun 11:24:50 11:28:55 35° 109° (ESE) 11:33:02 145.980
FO-29 25 Jun 11:33:15 11:37:02 20° 245° (WSW) 11:40:46 435.910
EO-79 25 Jun 11:39:14 11:43:06 33° 83° (E) 11:46:56 145.935-145.965
UNISAT 6 25 Jun 11:40:44 11:43:00 14° 245° (WSW) 11:45:16 437.425
DX 1 25 Jun 11:48:32 11:51:51 21° 113° (ESE) 11:55:12 434.975-435.025
SPROUT 25 Jun 11:53:12 11:57:31 79° 105° (ESE) 12:01:51 437.525
DUCHIFAT 1 25 Jun 11:54:21 11:58:21 39° 82° (E) 12:02:17 145.980
NANOSAT C BR1 25 Jun 12:02:10 12:06:22 56° 80° (E) 12:10:31 145.865
UKube-1 25 Jun 12:07:35 12:10:59 23° 112° (ESE) 12:14:24 .
AIST 2D 25 Jun 12:08:52 12:12:12 35° 253° (WSW) 12:15:30 435.315
50 SAT 25 Jun 12:33:28 12:36:56 75° 283° (WNW) 12:40:29 437.505
POLYITAN 1 25 Jun 12:39:03 12:43:09 46° 254° (WSW) 12:47:13 437.675
QB50P2 25 Jun 12:50:04 12:53:53 32° 251° (WSW) 12:57:40 145.880/145.840
VELOX 1 25 Jun 13:02:08 13:05:25 20° 274° (W) 13:08:44 145.980
RS-15 25 Jun 13:03:19 13:09:29 16° 191° (S) 13:15:42 29.354- 29.394
Gurwin Techsat 1B 25 Jun 13:03:39 13:06:57 16° 88° (E) 13:10:13 435.225
BUGSAT 1 25 Jun 13:08:13 13:12:19 85° 77° (ENE) 13:16:22 437.445
BEESAT 25 Jun 13:14:10 13:15:59 12° 118° (ESE) 13:17:48 436.000
EO-79 25 Jun 13:15:35 13:18:36 19° 247° (WSW) 13:21:36 145.935-145.965
DX 1 25 Jun 13:23:49 13:27:47 33° 278° (W) 13:31:49 434.975-435.025
DUCHIFAT 1 25 Jun 13:31:03 13:33:39 16° 246° (WSW) 13:36:15 145.980
NANOSAT C BR1 25 Jun 13:39:58 13:41:33 12° 244° (WSW) 13:43:07 145.865
UKube-1 25 Jun 13:42:59 13:46:49 30° 277° (W) 13:50:41 .
Oscar 19 25 Jun 13:55:27 14:00:45 87° 76° (ENE) 14:05:59 437.125/150
MOZHAYETS 4 25 Jun 14:27:11 14:31:27 40° 108° (ESE) 14:35:47
ITAMSAT 1 25 Jun 14:33:09 14:35:40 13° 89° (E) 14:38:10 435.822/435.867
AO-7 25 Jun 14:36:14 14:42:15 21° 86° (E) 14:48:11 .
ITUPSAT 1 25 Jun 14:37:42 14:42:30 86° 104° (ESE) 14:47:21 437.325
Gurwin Techsat 1B 25 Jun 14:41:57 14:47:14 57° 253° (WSW) 14:52:27 435.225
BEESAT 25 Jun 14:48:20 14:53:06 72° 282° (WNW) 14:57:56 436.000
CUBESAT XI-V 25 Jun 15:06:49 15:10:14 20° 114° (ESE) 15:13:40 437.345
RS-15 25 Jun 15:20:02 15:27:59 22° 153° (SSE) 15:36:06 29.354- 29.394
Oscar 19 25 Jun 15:37:33 15:39:16 12° 240° (WSW) 15:40:58 437.125/150
NO-84 25 Jun 15:58:53 16:00:40 15° 147° (SSE) 16:02:28 435.350 FM
MOZHAYETS 4 25 Jun 16:05:40 16:08:45 18° 273° (W) 16:11:51
KKS-1 25 Jun 16:06:38 16:11:05 61° 106° (ESE) 16:15:34 437.445
ITAMSAT 1 25 Jun 16:10:21 16:15:33 66° 254° (WSW) 16:20:42 435.822/435.867
AO-7 25 Jun 16:27:20 16:35:40 75° 249° (WSW) 16:43:56 .
STARS 25 Jun 16:38:41 16:43:02 56° 106° (ESE) 16:47:26 437.465
CUBESAT XI-V 25 Jun 16:42:56 16:47:17 38° 278° (W) 16:51:44 437.345
AO-85 25 Jun 16:58:51 17:03:52 46° 126° (SE) 17:08:31 145.980
BEESAT 3 25 Jun 17:27:09 17:30:48 40° 125° (SE) 17:34:26 437.485
RS-15 25 Jun 17:32:04 17:43:07 64° 126° (SE) 17:54:38 29.354- 29.394
NO-84 25 Jun 17:35:25 17:38:16 43° 311° (NW) 17:41:12 435.350 FM
DOVE 4 25 Jun 17:46:24 17:50:56 58° 80° (E) 17:55:11 437.250
KKS-1 25 Jun 17:46:31 17:47:59 11° 271° (W) 17:49:27 437.445
NUDT-PHONESAT 25 Jun 17:54:25 17:57:24 21° 85° (E) 18:00:21 437.300
O/OREOS (USA 219) 25 Jun 18:03:36 18:05:59 14° 125° (SE) 18:08:21 437.305
XW-2F 25 Jun 18:07:06 18:10:48 40° 81° (E) 18:14:27 145.980 - 146.000
XW-2D 25 Jun 18:10:29 18:14:18 49° 80° (E) 18:18:04 145.860 - 145.880
